This is the latest recevied weather packets stored in our database for station/object WB3IGR. If no packets are shown the sender has not sent any weather packets the latest 10 day(s).
| Time | Temp. | Humidity | Pressure | Rain* | Wind** | Luminosity | Snow |
|---|---|---|---|---|---|---|---|
| 1777905230 | 16.11° C | 49% | 1015 hPa | 0 mm | - | 680 W/m² | - |
| 1777904928 | 16.11° C | 49% | 1015.2 hPa | 0 mm | - | 674 W/m² | - |
| 1777904624 | 16.11° C | 48% | 1015 hPa | 0 mm | - | 654 W/m² | - |
| 1777904322 | 16.11° C | 51% | 1015.1 hPa | 0 mm | - | 632 W/m² | - |
| 1777904019 | 16.11° C | 49% | 1015.2 hPa | 0 mm | - | 624 W/m² | - |
| 1777903716 | 16.11° C | 48% | 1015.2 hPa | 0 mm | - | 620 W/m² | - |
| 1777903411 | 15.56° C | 51% | 1015.1 hPa | 0 mm | - | 613 W/m² | - |
| 1777903108 | 15° C | 53% | 1015.2 hPa | 0 mm | - | 606 W/m² | - |
| 1777902804 | 15° C | 51% | 1015.3 hPa | 0 mm | - | 586 W/m² | - |
| 1777902502 | 15.56° C | 51% | 1015.1 hPa | 0 mm | - | 567 W/m² | - |
| 1777902199 | 14.44° C | 51% | 1015.1 hPa | 0 mm | - | 565 W/m² | - |
| 1777901897 | 14.44° C | 52% | 1015.1 hPa | 0 mm | - | 551 W/m² | - |
| 1777901594 | 14.44° C | 52% | 1015.4 hPa | 0 mm | - | 537 W/m² | - |
| 1777901291 | 13.89° C | 52% | 1015.4 hPa | 0 mm | - | 508 W/m² | - |
| 1777900989 | 13.89° C | 54% | 1015.4 hPa | 0 mm | - | 353 W/m² | - |
| 1777900687 | 13.89° C | 54% | 1015.4 hPa | 0 mm | - | 387 W/m² | - |
| 1777900383 | 13.33° C | 53% | 1015.4 hPa | 0 mm | - | 454 W/m² | - |
| 1777900080 | 13.33° C | 52% | 1015.3 hPa | 0 mm | - | 436 W/m² | - |
| 1777899776 | 13.33° C | 54% | 1015.2 hPa | 0 mm | - | 417 W/m² | - |
| 1777899473 | 13.33° C | 56% | 1015.4 hPa | 0 mm | - | 399 W/m² | - |
| 1777899171 | 12.78° C | 55% | 1015.5 hPa | 0 mm | - | 447 W/m² | - |
| 1777898868 | 12.78° C | 56% | 1015.4 hPa | 0 mm | - | 314 W/m² | - |
| 1777898566 | 12.22° C | 64% | 1015.6 hPa | 0 mm | - | 232 W/m² | - |
| 1777898263 | 12.22° C | 61% | 1015.6 hPa | 0 mm | - | 203 W/m² | - |
| 1777897960 | 12.22° C | 62% | 1015.7 hPa | 0 mm | - | 205 W/m² | - |
* Rain latest hour (hover to see other rain measurements)
** Current wind speed in m/s (hover to see current wind gust speed)